Vertical_Velocity
0 -0 -1 -1 -1 0 1 2 1 -1 -0 -0 0 0 -0 0 -0 -1 -2 -2 -1 -0
1 0 -1 0 0 1 0 -0 1 -1 1 0 1 2 1 0 -1 -1 -0 0 -0 -1
0 -1 1 -0 2 0 1 1 2 2 3 1 1 1 -1 0 -1 -1 -0 -1 -0 0
-3 -0 -1 -1 -1 -1 1 2 1 2 1 1 2 0 -0 1 -0 -1 -1 -2 -1 1
1 -1 -1 -1 -1 -1 1 1 1 1 -0 0 -1 -0 -1 -2 -3 -2 1 2 0 0
-2 -2 -1 -1 -1 -1 -0 2 0 -1 -1 0 3 4 3 1 1 0 1 2 -0 2
-2 -1 -1 -1 -0 2 2 -0 1 2 3 2 1 0 1 0 0 1 -1 -0 0 -1
1 -1 -2 -1 -1 -2 -3 -0 1 0 0 -1 -1 -0 2 1 1 1 0 0 -1 -1
0 0 -0 -0 -1 -2 -2 -2 -1 0 -1 -1 -0 3 -1 2 0 2 3 1 0 0
-1 -1 -2 -2 -2 -2 1 1 0 0 0 -0 -1 -1 0 2 -2 1 3 2 3 2
-0 -1 -1 -0 2 2 1 2 1 1 -1 -4 -1 0 -0 0 -1 -3 -0 3 3 2
-4 -0 2 3 3 2 0 -2 -4 -5 -3 -2 2 1 0 1 -0 -1 -2 1 1 1
2 2 2 1 -2 -2 -4 -3 -2 2 -1 -1 -5 -1 1 0 -2 -0 -3 1 -1 2
2 1 -0 -2 -1 -2 -2 -0 -1 -3 1 -1 -2 0 0 -1 0 2 0 -0 -1 0
Height
1531 1529 1527 1526 1523 1520 1518 1517 1515 1513 1512 1511 1509 1508 1506 1506 1504 1503 1502 1501 1499 1498
1528 1526 1523 1521 1518 1516 1513 1511 1510 1509 1507 1505 1504 1503 1501 1501 1500 1499 1498 1497 1496 1494
1524 1522 1518 1515 1513 1510 1508 1506 1505 1504 1502 1501 1500 1498 1497 1496 1496 1495 1494 1493 1491 1490
1520 1516 1513 1510 1507 1505 1502 1501 1499 1499 1497 1496 1495 1493 1492 1491 1490 1490 1489 1488 1487 1485
1514 1511 1508 1505 1502 1500 1498 1496 1494 1493 1492 1491 1489 1488 1486 1485 1484 1483 1482 1481 1481 1480
1510 1507 1505 1501 1498 1496 1494 1492 1490 1489 1488 1486 1484 1482 1480 1479 1478 1477 1476 1475 1475 1475
1507 1504 1501 1498 1495 1492 1490 1488 1486 1484 1482 1480 1478 1476 1474 1473 1472 1472 1471 1470 1469 1469
1503 1500 1498 1495 1492 1489 1487 1485 1482 1479 1477 1474 1472 1470 1469 1468 1467 1466 1464 1463 1462 1462
1500 1497 1494 1492 1489 1487 1484 1481 1478 1474 1471 1468 1466 1465 1463 1462 1461 1460 1458 1457 1456 1456
1496 1494 1492 1490 1487 1483 1480 1476 1472 1468 1465 1463 1461 1459 1458 1456 1454 1453 1451 1450 1450 1450
1493 1490 1488 1485 1481 1477 1474 1471 1467 1464 1461 1458 1456 1453 1451 1449 1447 1445 1444 1443 1443 1444
1488 1486 1483 1479 1475 1471 1468 1465 1462 1460 1456 1453 1451 1447 1444 1441 1439 1438 1438 1437 1437 1438
1482 1478 1476 1472 1469 1467 1464 1461 1458 1454 1450 1447 1445 1443 1440 1435 1434 1431 1432 1431 1430 1432
1477 1473 1470 1467 1464 1462 1460 1456 1453 1450 1446 1443 1440 1437 1435 1432 1430 1427 1427 1426 1426 1427